Simultaneous Nadir Overpasses (SNOs) Predictions

Prediction of SNOs between GOES-16 and AQUA Satellite Orbit:

Table of predicted SNOs for the next 14.0 days since TLE Epoch: 3/23/2024
Index Date Time (GOES-16) GOES-16 Lat,Lon AQUA Lat,Lon Distance(km) Time Diff (sec)
1 03/23/2024 18:51:56 0.03, -75.21 0.81, -71.62 407.79 80
2 03/24/2024 07:12:14 -0.02, -75.21 0.27, -76.53 150.34 80
3 03/26/2024 06:53:43 -0.02, -75.23 -0.59, -72.66 292.19 80
4 03/26/2024 19:14:10 0.02, -75.23 -0.47, -77.61 270.73 80
5 03/28/2024 19:00:57 0.02, -75.25 0.36, -73.73 172.90 80
6 03/29/2024 07:21:15 -0.02, -75.26 0.69, -78.64 384.54 80
7 03/31/2024 07:02:40 -0.02, -75.28 -0.11, -74.75 59.80 80
8 04/02/2024 19:07:11 0.01, -75.30 -0.08, -75.81 57.66 80
9 04/04/2024 18:53:54 0.01, -75.32 0.75, -71.91 388.77 80
10 04/05/2024 07:14:11 -0.00, -75.34 0.31, -76.82 167.82 80
